OK1CBR-13 Weather Reports


time (UTC)temp
C
wind
direction
speed
KPH
gust
KPH
rain 1hr
cm
rain 24hr
cm
rain mn
cm
humidity
%
barometer
mb
20260502163733 33 0.0 0.0 0.00 0.00 0.00 15 1019.6
20260502162733 32 0.0 0.0 0.00 0.00 0.00 16 1019.7
20260502161733 33 0.0 0.0 0.00 0.00 0.00 16 1019.9
20260502160733 32 0.0 0.0 0.00 0.00 0.00 15 1020.0
20260502151731 32 0.0 0.0 0.00 0.00 0.00 14 1020.7
20260502150731 31 0.0 0.0 0.00 0.00 0.00 16 1020.8
20260502130732 26 0.0 0.0 0.00 0.00 0.00 22 1022.3
20260502123732 26 0.0 0.0 0.00 0.00 0.00 24 1022.8
20260502122732 26 0.0 0.0 0.00 0.00 0.00 23 1023.0
20260502121732 25 0.0 0.0 0.00 0.00 0.00 22 1023.1
20260502120732 25 0.0 0.0 0.00 0.00 0.00 22 1023.2
20260502115732 25 0.0 0.0 0.00 0.00 0.00 24 1023.4
20260502114732 23 0.0 0.0 0.00 0.00 0.00 24 1023.5
20260502113732 24 0.0 0.0 0.00 0.00 0.00 23 1023.7
20260502112732 23 0.0 0.0 0.00 0.00 0.00 25 1023.9
20260502111732 23 0.0 0.0 0.00 0.00 0.00 25 1024.0
20260502110732 23 0.0 0.0 0.00 0.00 0.00 26 1024.2
20260502105732 23 0.0 0.0 0.00 0.00 0.00 26 1024.3
20260502104732 23 0.0 0.0 0.00 0.00 0.00 28 1024.5
20260502103732 22 0.0 0.0 0.00 0.00 0.00 27 1024.5
20260502102732 23 0.0 0.0 0.00 0.00 0.00 26 1024.6
20260502101732 22 0.0 0.0 0.00 0.00 0.00 30 1024.8
20260502100732 22 0.0 0.0 0.00 0.00 0.00 29 1024.9
20260502090732 20 0.0 0.0 0.00 0.00 0.00 34 1025.5
20260502070732 13 0.0 0.0 0.00 0.00 0.00 62 1026.5
20260502065732 12 0.0 0.0 0.00 0.00 0.00 64 1026.6
20260502064732 12 0.0 0.0 0.00 0.00 0.00 65 1026.6
20260502063732 11 0.0 0.0 0.00 0.00 0.00 66 1026.6
20260502062732 11 0.0 0.0 0.00 0.00 0.00 69 1026.7
20260502061732 10 0.0 0.0 0.00 0.00 0.00 70 1026.6
20260502060732 10 0.0 0.0 0.00 0.00 0.00 73 1026.5
20260502055732 8 0.0 0.0 0.00 0.00 0.00 75 1026.6
20260502054733 8 0.0 0.0 0.00 0.00 0.00 78 1026.6
20260502053732 8 0.0 0.0 0.00 0.00 0.00 78 1026.6
20260502052732 7 0.0 0.0 0.00 0.00 0.00 83 1026.5
20260502051732 7 0.0 0.0 0.00 0.00 0.00 86 1026.5
20260502050732 6 0.0 0.0 0.00 0.00 0.00 87 1026.5
20260502045732 6 0.0 0.0 0.00 0.00 0.00 86 1026.5
20260502044733 6 0.0 0.0 0.00 0.00 0.00 86 1026.5
20260502042733 6 0.0 0.0 0.00 0.00 0.00 80 1026.4
20260502041733 6 0.0 0.0 0.00 0.00 0.00 80 1026.4
20260502040733 6 0.0 0.0 0.00 0.00 0.00 80 1026.4
20260502035736 6 0.0 0.0 0.00 0.00 0.00 82 1026.4
20260502034731 6 0.0 0.0 0.00 0.00 0.00 83 1026.4
20260502033731 6 0.0 0.0 0.00 0.00 0.00 79 1026.4
20260502032731 6 0.0 0.0 0.00 0.00 0.00 79 1026.4
20260502031731 6 0.0 0.0 0.00 0.00 0.00 81 1026.4
20260502030731 6 0.0 0.0 0.00 0.00 0.00 79 1026.4
20260502025734 6 0.0 0.0 0.00 0.00 0.00 78 1026.4
20260502024731 7 0.0 0.0 0.00 0.00 0.00 78 1026.5
20260502023731 7 0.0 0.0 0.00 0.00 0.00 79 1026.5
20260502022731 7 0.0 0.0 0.00 0.00 0.00 74 1026.6
20260502021731 7 0.0 0.0 0.00 0.00 0.00 74 1026.5
20260502020731 7 0.0 0.0 0.00 0.00 0.00 75 1026.5
20260502015731 7 0.0 0.0 0.00 0.00 0.00 75 1026.4
20260502014731 7 0.0 0.0 0.00 0.00 0.00 70 1026.5
20260502013731 7 0.0 0.0 0.00 0.00 0.00 70 1026.4
20260502012731 8 0.0 0.0 0.00 0.00 0.00 69 1026.5
20260502011732 8 0.0 0.0 0.00 0.00 0.00 70 1026.6
20260502010731 8 0.0 0.0 0.00 0.00 0.00 69 1026.6
20260502005731 8 0.0 0.0 0.00 0.00 0.00 70 1026.6
20260502004731 8 0.0 0.0 0.00 0.00 0.00 68 1026.6
20260502003732 8 0.0 0.0 0.00 0.00 0.00 66 1026.6
20260502002732 9 0.0 0.0 0.00 0.00 0.00 65 1026.6
20260502001732 9 0.0 0.0 0.00 0.00 0.00 64 1026.6
20260502000731 9 0.0 0.0 0.00 0.00 0.00 64 1026.5
20260501235732 9 0.0 0.0 0.00 0.00 0.00 64 1026.6
20260501234732 10 0.0 0.0 0.00 0.00 0.00 64 1026.6
20260501233732 10 0.0 0.0 0.00 0.00 0.00 63 1026.7
20260501232732 10 0.0 0.0 0.00 0.00 0.00 62 1026.7
20260501231731 10 0.0 0.0 0.00 0.00 0.00 62 1026.7
20260501230732 10 0.0 0.0 0.00 0.00 0.00 63 1026.7
20260501225732 10 0.0 0.0 0.00 0.00 0.00 61 1026.8
20260501224732 10 0.0 0.0 0.00 0.00 0.00 61 1026.9
20260501223732 11 0.0 0.0 0.00 0.00 0.00 60 1026.9
20260501222732 11 0.0 0.0 0.00 0.00 0.00 58 1026.8
20260501221732 11 0.0 0.0 0.00 0.00 0.00 58 1026.9
20260501220732 11 0.0 0.0 0.00 0.00 0.00 58 1026.9
20260501215732 11 0.0 0.0 0.00 0.00 0.00 57 1026.8
20260501214732 12 0.0 0.0 0.00 0.00 0.00 56 1026.7
20260501213732 12 0.0 0.0 0.00 0.00 0.00 55 1026.7
20260501212732 12 0.0 0.0 0.00 0.00 0.00 54 1026.7
20260501211732 12 0.0 0.0 0.00 0.00 0.00 53 1026.7
20260501210732 12 0.0 0.0 0.00 0.00 0.00 53 1026.7
20260501205732 13 0.0 0.0 0.00 0.00 0.00 52 1026.6
20260501204732 13 0.0 0.0 0.00 0.00 0.00 52 1026.5
20260501203732 13 0.0 0.0 0.00 0.00 0.00 52 1026.5
20260501202732 13 0.0 0.0 0.00 0.00 0.00 50 1026.5
20260501201732 14 0.0 0.0 0.00 0.00 0.00 48 1026.5
20260501200732 14 0.0 0.0 0.00 0.00 0.00 48 1026.5
20260501195732 15 0.0 0.0 0.00 0.00 0.00 48 1026.6
20260501194732 15 0.0 0.0 0.00 0.00 0.00 45 1026.3
20260501193732 16 0.0 0.0 0.00 0.00 0.00 44 1026.3
20260501192732 16 0.0 0.0 0.00 0.00 0.00 44 1026.3
20260501191732 16 0.0 0.0 0.00 0.00 0.00 44 1026.3
20260501190732 17 0.0 0.0 0.00 0.00 0.00 40 1026.2
20260501185732 17 0.0 0.0 0.00 0.00 0.00 38 1026.2
20260501184732 18 0.0 0.0 0.00 0.00 0.00 37 1026.1
20260501183732 18 0.0 0.0 0.00 0.00 0.00 35 1026.1
20260501182732 18 0.0 0.0 0.00 0.00 0.00 34 1026.0
20260501181732 19 0.0 0.0 0.00 0.00 0.00 33 1025.8
20260501180732 20 0.0 0.0 0.00 0.00 0.00 31 1025.7
20260501175732 21 0.0 0.0 0.00 0.00 0.00 30 1025.6
20260501174732 23 0.0 0.0 0.00 0.00 0.00 26 1025.6
20260501173732 25 0.0 0.0 0.00 0.00 0.00 24 1025.6
20260501172732 26 0.0 0.0 0.00 0.00 0.00 22 1025.5
20260501171732 27 0.0 0.0 0.00 0.00 0.00 21 1025.4
20260501170732 29 0.0 0.0 0.00 0.00 0.00 18 1025.5
20260501165732 30 0.0 0.0 0.00 0.00 0.00 19 1025.5